Location: London
(51.5074°N, 0.1278°W)
Time: 08:17:11
(UTC+00:00)

TIGRISAT - Pass Details

Date: 09 October 2020
Orbit: 606 x 688 km, 97.7° (Epoch: 30 October)

Event Time Altitude Azimuth Distance (km) Brightness Sun altitude
Rises 20:03:59 0° 24° (NNE) 3,019 ? -17.0°
Reaches altitude 10° 20:06:40 10° 40° (NE) 2,114 ? -17.5°
Enters shadow 20:06:53 11° 41° (NE) 2,050 ? -17.5°
